Weather History for Conway, SC

Change the Weather History Date:

Thursday, November 7, 2013

  Actual Average Record
Temperature  
Mean Temperature 64 °F -  
Max Temperature 73 °F 68 °F 73 °F (2011)
Min Temperature 55 °F 43 °F 32 °F (2010)
Degree Days  
Heating Degree Days 1    
Growing Degree Days 14 (Base 50)    
Moisture  
Dew Point 62 °F    
Average Humidity 92    
Maximum Humidity 100    
Minimum Humidity 59    
Precipitation  
Precipitation 0.30 in - - ()
Sea Level Pressure  
Sea Level Pressure 30.01 in    
Wind  
Wind Speed 1 mph (NW)    
Max Wind Speed 10 mph    
Max Gust Speed 16 mph    
Visibility 6 miles    
Events Rain    
Averages and records for this station are not official NWS values.
T = Trace of Precipitation, MM = Missing Value Source: NWS Daily Summary

Daily Weather History Graph

Daily Weather History Graph

Search for Another Location

Airport:

Trip Planner

Search our weather history database for the weather conditions in past years. The results will help you decide how hot, cold, wet, or windy it might be!

Date:

Astronomy

Nov. 07, 2013 Rise Set
Actual Time 6:41 AM EST 5:18 PM EST
Civil Twilight 6:15 AM EST 5:44 PM EST
Nautical Twilight 5:45 AM EST 6:14 PM EST
Astronomical Twilight 5:16 AM EST 6:43 PM EST
Moon 10:46 AM EST (11/7) 9:30 PM EST (11/7)
Length of Visible Light 11h 29m
Length of Day
10h 37m
Waxing Crescent, 22% of the Moon is Illuminated
Nov 7
Waxing Crescent
Nov 10
First Quarter
Nov 17
Full
Nov 25
Last Quarter
Dec 2
New

Hourly Weather History & Observations

Time (EST) Temp. Dew Point Humidity Pressure Visibility Wind Dir Wind Speed Gust Speed Precip Events Conditions
12:15 AM 64.4 °F 64.4 °F 100% 30.11 in 5.0 mi Calm Calm - N/A Rain Light Rain
12:35 AM 64.4 °F 64.4 °F 100% 30.10 in 3.0 mi Calm Calm - 0.03 in Rain Rain
12:55 AM 64.4 °F 64.4 °F 100% 30.09 in 4.0 mi Calm Calm - 0.07 in Rain Rain
1:15 AM 64.4 °F 64.4 °F 100% 30.09 in 4.0 mi Calm Calm - 0.03 in Rain Rain
1:35 AM 64.4 °F 64.4 °F 100% 30.08 in 4.0 mi Calm Calm - 0.07 in Rain Rain
1:55 AM 64.4 °F 64.4 °F 100% 30.07 in 3.0 mi North 3.5 mph - 0.12 in Rain Rain
2:15 AM 64.4 °F 64.4 °F 100% 30.07 in 5.0 mi North 4.6 mph - 0.01 in Rain Rain
2:55 AM 62.6 °F 62.6 °F 100% 30.05 in 5.0 mi Calm Calm - 0.07 in Rain Rain
3:15 AM 62.6 °F 62.6 °F 100% 30.04 in 5.0 mi North 4.6 mph - 0.01 in Rain Light Rain
3:55 AM 62.6 °F 62.6 °F 100% 30.02 in 7.0 mi Calm Calm - 0.03 in Rain Rain
4:15 AM 62.6 °F 62.6 °F 100% 30.02 in 10.0 mi Calm Calm - N/A Rain Light Rain
4:35 AM 62.6 °F 62.6 °F 100% 30.02 in 7.0 mi Calm Calm - N/A Rain Rain
4:55 AM 62.6 °F 62.6 °F 100% 30.02 in 5.0 mi Calm Calm - N/A Rain Light Rain
5:15 AM 62.6 °F 62.6 °F 100% 30.01 in 4.0 mi Calm Calm - N/A Rain Rain
5:35 AM 62.6 °F 62.6 °F 100% 30.01 in 5.0 mi NNE 3.5 mph - N/A   Overcast
5:55 AM 62.6 °F 62.6 °F 100% 30.01 in 7.0 mi Calm Calm - N/A   Overcast
6:15 AM 62.6 °F 62.6 °F 100% 30.01 in 7.0 mi Calm Calm - N/A   Overcast
6:35 AM 62.6 °F 62.6 °F 100% 30.01 in 10.0 mi Calm Calm - N/A   Overcast
6:55 AM 62.6 °F 62.6 °F 100% 30.01 in 7.0 mi Calm Calm - 0.01 in   Mostly Cloudy
7:15 AM 62.6 °F 62.6 °F 100% 30.01 in 4.0 mi Calm Calm - N/A   Scattered Clouds
7:35 AM 62.6 °F 62.6 °F 100% 30.02 in 5.0 mi West 3.5 mph - N/A   Overcast
7:55 AM 62.6 °F 62.6 °F 100% 30.02 in 7.0 mi Calm Calm - N/A   Overcast
8:35 AM 62.6 °F 62.6 °F 100% 30.04 in 5.0 mi Calm Calm - N/A   Overcast
8:55 AM 64.4 °F 64.4 °F 100% 30.04 in 5.0 mi Calm Calm - N/A   Overcast
9:35 AM 64.4 °F 64.4 °F 100% 30.04 in 5.0 mi Calm Calm - N/A   Overcast
9:55 AM 64.4 °F 64.4 °F 100% 30.04 in 7.0 mi West 3.5 mph - N/A   Overcast
10:15 AM 64.4 °F 64.4 °F 100% 30.04 in 7.0 mi West 3.5 mph - N/A   Overcast
10:35 AM 66.2 °F 66.2 °F 100% 30.03 in 5.0 mi Calm Calm - N/A   Overcast
10:55 AM 68.0 °F 66.2 °F 94% 30.02 in 7.0 mi Calm Calm - N/A   Mostly Cloudy
11:15 AM 68.0 °F 68.0 °F 100% 30.01 in 7.0 mi West 3.5 mph - N/A   Mostly Cloudy
11:35 AM 69.8 °F 68.0 °F 94% 30.01 in 7.0 mi SW 6.9 mph - N/A   Overcast
11:55 AM 69.8 °F 66.2 °F 88% 30.01 in 7.0 mi Calm Calm - N/A   Mostly Cloudy
12:15 PM 69.8 °F 66.2 °F 88% 29.99 in 7.0 mi Calm Calm - N/A   Mostly Cloudy
12:35 PM 69.8 °F 62.6 °F 78% 29.98 in 7.0 mi Calm Calm - N/A   Mostly Cloudy
12:55 PM 71.6 °F 62.6 °F 73% 29.97 in 7.0 mi West 4.6 mph - N/A   Scattered Clouds
1:15 PM 71.6 °F 62.6 °F 73% 29.96 in 5.0 mi Calm Calm - N/A   Haze
1:35 PM 71.6 °F 62.6 °F 73% 29.96 in 7.0 mi WSW 5.8 mph - N/A   Scattered Clouds
1:55 PM 73.4 °F 62.6 °F 69% 29.94 in 7.0 mi WSW 3.5 mph - N/A   Clear
2:15 PM 73.4 °F 62.6 °F 69% 29.94 in 7.0 mi WSW 6.9 mph - N/A   Scattered Clouds
2:35 PM 73.4 °F 62.6 °F 69% 29.94 in 4.0 mi WSW 5.8 mph - N/A   Haze
3:15 PM 71.6 °F 62.6 °F 73% 29.93 in 7.0 mi West 4.6 mph - N/A   Mostly Cloudy
3:35 PM 71.6 °F 62.6 °F 73% 29.93 in 7.0 mi Calm Calm - N/A   Overcast
4:15 PM 69.8 °F 64.4 °F 83% 29.94 in 7.0 mi Calm Calm - N/A   Overcast
4:35 PM 69.8 °F 64.4 °F 83% 29.94 in 7.0 mi Calm Calm - N/A   Overcast
4:55 PM 68.0 °F 68.0 °F 100% 29.95 in 7.0 mi Calm Calm - N/A   Mostly Cloudy
5:55 PM 64.4 °F 64.4 °F 100% 29.96 in 7.0 mi Calm Calm - N/A   Scattered Clouds
6:15 PM 64.4 °F 64.4 °F 100% 29.96 in 7.0 mi Calm Calm - N/A   Mostly Cloudy
6:35 PM 62.6 °F 62.6 °F 100% 29.97 in 5.0 mi Calm Calm - N/A   Scattered Clouds
6:55 PM 62.6 °F 62.6 °F 100% 29.98 in 7.0 mi Calm Calm - N/A   Mostly Cloudy
7:15 PM 62.6 °F 62.6 °F 100% 29.99 in 5.0 mi Calm Calm - N/A   Mostly Cloudy
7:35 PM 64.4 °F 64.4 °F 100% 29.99 in 7.0 mi North 4.6 mph - N/A   Scattered Clouds
7:55 PM 64.4 °F 64.4 °F 100% 30.00 in 7.0 mi North 3.5 mph - N/A   Mostly Cloudy
8:15 PM 64.4 °F 64.4 °F 100% 30.01 in 7.0 mi Calm Calm - N/A   Mostly Cloudy
8:35 PM 62.6 °F 62.6 °F 100% 30.01 in 7.0 mi Calm Calm - N/A   Scattered Clouds
8:55 PM 62.6 °F 62.6 °F 100% 30.02 in 7.0 mi Calm Calm - N/A   Clear
9:15 PM 62.6 °F 62.6 °F 100% 30.02 in 7.0 mi North 4.6 mph - N/A   Clear
9:35 PM 62.6 °F 62.6 °F 100% 30.03 in 7.0 mi North 5.8 mph - N/A   Clear
9:55 PM 62.6 °F 60.8 °F 94% 30.03 in 7.0 mi North 5.8 mph - N/A   Clear
10:15 PM 60.8 °F 51.8 °F 72% 30.04 in 7.0 mi North 10.4 mph 16.1 mph N/A   Clear
10:55 PM 59.0 °F 46.4 °F 63% 30.05 in 7.0 mi North 5.8 mph - N/A   Clear
11:15 PM 59.0 °F 44.6 °F 59% 30.06 in 10.0 mi North 9.2 mph - N/A   Clear
11:35 PM 55.4 °F 44.6 °F 67% 30.06 in 7.0 mi North 8.1 mph - N/A   Clear
11:55 PM 55.4 °F 42.8 °F 63% 30.07 in 10.0 mi North 5.8 mph - N/A   Clear